Weather History for New Bedford, MA

Change the Weather History Date:

Tuesday, December 18, 2012

  Actual Average Record
Temperature  
Mean Temperature 49 °F -  
Max Temperature 54 °F 40 °F 58 °F (1954)
Min Temperature 44 °F 24 °F 7 °F (1991)
Degree Days  
Heating Degree Days 16    
Moisture  
Dew Point 47 °F    
Average Humidity 90    
Maximum Humidity 100    
Minimum Humidity 80    
Precipitation  
Precipitation 0.32 in - - ()
Sea Level Pressure  
Sea Level Pressure 29.50 in    
Wind  
Wind Speed 8 mph (SW)    
Max Wind Speed 13 mph    
Max Gust Speed 21 mph    
Visibility 6 miles    
Events Rain    
Averages and records for this station are not official NWS values.
T = Trace of Precipitation, MM = Missing Value Source: NWS Daily Summary

Daily Weather History Graph

Daily Weather History Graph

Search for Another Location

Airport:

Trip Planner

Search our weather history database for the weather conditions in past years. The results will help you decide how hot, cold, wet, or windy it might be!

Date:

Astronomy

Dec. 18, 2012 Rise Set
Actual Time 7:06 AM EST 4:15 PM EST
Civil Twilight 6:34 AM EST 4:46 PM EST
Nautical Twilight 5:59 AM EST 5:22 PM EST
Astronomical Twilight 5:25 AM EST 5:55 PM EST
Moon 10:40 AM EST (12/18) 10:43 PM EST (12/18)
Length of Visible Light 10h 12m
Length of Day
9h 09m
Waxing Crescent, 34% of the Moon is Illuminated
Dec 18
Waxing Crescent
Dec 20
First Quarter
Dec 28
Full
Jan 4
Last Quarter
Jan 11
New

Hourly Weather History & Observations

Time (EST) Temp. Windchill Dew Point Humidity Pressure Visibility Wind Dir Wind Speed Gust Speed Precip Events Conditions
12:00 AM 48.2 °F - 46.4 °F 93% 29.73 in 1.5 mi NE 6.9 mph - 0.01 in Rain Light Rain
12:26 AM 48.2 °F - 46.4 °F 93% 29.72 in 2.0 mi NE 6.9 mph - 0.02 in Rain Light Rain
12:53 AM 48.0 °F - 46.0 °F 93% 29.71 in 1.8 mi NE 6.9 mph - 0.02 in   Overcast
1:06 AM 48.2 °F - 46.4 °F 93% 29.69 in 2.5 mi NE 9.2 mph - N/A   Overcast
1:16 AM 48.2 °F - 46.4 °F 93% 29.68 in 4.0 mi NE 11.5 mph - N/A   Overcast
1:53 AM 48.0 °F - 46.0 °F 93% 29.68 in 4.0 mi ENE 9.2 mph - 0.02 in Rain Light Rain
2:53 AM 48.0 °F - 46.9 °F 96% 29.64 in 7.0 mi NE 8.1 mph - 0.02 in Rain Light Rain
3:53 AM 48.9 °F - 46.9 °F 93% 29.61 in 6.0 mi ENE 5.8 mph - 0.04 in Rain Light Rain
4:53 AM 48.0 °F - 46.9 °F 96% 29.57 in 3.0 mi NE 6.9 mph - 0.00 in   Overcast
5:03 AM 48.2 °F - 46.4 °F 93% 29.57 in 2.0 mi NE 6.9 mph - N/A   Overcast
5:48 AM 48.2 °F - 46.4 °F 93% 29.53 in 4.0 mi ENE 8.1 mph - 0.08 in Rain Light Rain
5:53 AM 48.0 °F - 46.9 °F 96% 29.54 in 5.0 mi East 8.1 mph - 0.09 in Rain Rain
6:53 AM 48.9 °F - 48.0 °F 97% 29.53 in 4.0 mi ESE 3.5 mph - 0.03 in Rain Light Rain
7:53 AM 48.9 °F - 48.0 °F 97% 29.50 in 1.8 mi SE 10.4 mph - 0.02 in   Overcast
8:00 AM 48.2 °F - 48.2 °F 100% 29.50 in 2.0 mi ESE 8.1 mph - 0.00 in Rain Light Rain
8:53 AM 50.0 °F - 48.9 °F 96% 29.49 in 2.0 mi Calm Calm - 0.07 in Rain Light Rain
9:00 AM 51.8 °F - 48.2 °F 88% 29.49 in 1.0 mi South 5.8 mph - 0.00 in Rain Light Rain
9:53 AM 51.1 °F - 50.0 °F 96% 29.47 in 1.5 mi South 6.9 mph - 0.01 in   Overcast
10:32 AM 53.6 °F - 51.8 °F 94% 29.45 in 2.5 mi South 6.9 mph - N/A   Overcast
10:40 AM 53.6 °F - 53.6 °F 100% 29.45 in 4.0 mi SSW 8.1 mph - N/A   Overcast
10:53 AM 54.0 °F - 52.0 °F 93% 29.44 in 4.0 mi SSW 12.7 mph - N/A   Overcast
11:53 AM 53.1 °F - 51.1 °F 93% 29.44 in 6.0 mi SW 8.1 mph - N/A   Overcast
12:39 PM 53.6 °F - 50.0 °F 88% 29.42 in 9.0 mi WSW 8.1 mph - N/A   Overcast
12:53 PM 54.0 °F - 51.1 °F 90% 29.42 in 10.0 mi SW 10.4 mph - N/A   Overcast
1:53 PM 54.0 °F - 50.0 °F 86% 29.41 in 10.0 mi WSW 8.1 mph - N/A   Mostly Cloudy
2:53 PM 53.1 °F - 48.0 °F 83% 29.42 in 10.0 mi WSW 12.7 mph 20.7 mph N/A   Overcast
3:36 PM 51.8 °F - 46.4 °F 82% 29.42 in 10.0 mi West 9.2 mph - N/A   Scattered Clouds
3:53 PM 51.1 °F - 46.0 °F 83% 29.42 in 10.0 mi West 6.9 mph - N/A   Scattered Clouds
4:46 PM 50.0 °F - 44.6 °F 82% 29.43 in 10.0 mi West 4.6 mph - N/A   Overcast
4:53 PM 50.0 °F - 45.0 °F 83% 29.43 in 10.0 mi West 8.1 mph - N/A   Overcast
5:53 PM 48.9 °F - 45.0 °F 86% 29.44 in 10.0 mi West 3.5 mph - N/A   Overcast
6:26 PM 48.2 °F - 44.6 °F 87% 29.44 in 10.0 mi WSW 4.6 mph - N/A   Overcast
6:53 PM 48.9 °F - 44.1 °F 83% 29.44 in 10.0 mi SW 5.8 mph - N/A   Overcast
7:06 PM 48.2 °F - 44.6 °F 87% 29.44 in 10.0 mi WSW 6.9 mph - N/A   Overcast
7:30 PM 48.2 °F - 44.6 °F 87% 29.45 in 10.0 mi WSW 8.1 mph - N/A   Overcast
7:53 PM 48.0 °F - 44.1 °F 86% 29.45 in 10.0 mi West 6.9 mph - N/A   Overcast
8:22 PM 48.2 °F - 42.8 °F 82% 29.45 in 10.0 mi West 11.5 mph - N/A   Overcast
8:53 PM 46.9 °F - 41.0 °F 80% 29.45 in 10.0 mi WNW 8.1 mph - N/A   Overcast
9:29 PM 44.6 °F 41.4 °F 41.0 °F 87% 29.44 in 10.0 mi West 5.8 mph - N/A   Scattered Clouds
9:53 PM 46.0 °F 43.1 °F 41.0 °F 83% 29.44 in 10.0 mi West 5.8 mph - N/A   Mostly Cloudy
10:53 PM 44.1 °F 40.8 °F 41.0 °F 89% 29.44 in 10.0 mi West 5.8 mph - N/A   Mostly Cloudy
11:53 PM 46.0 °F 41.0 °F 41.0 °F 83% 29.44 in 10.0 mi West 10.4 mph - N/A   Overcast